ECHOSTAR 21 (42749 NORAD) Tracking and Keplerian Element Data

This shows tracking and keplerian element data for the satellite.

Feedback or suggestion? Click here.




ElementValue
Catalog42749
NameECHOSTAR 21
Epoch Orbit807
Epoch Day228.53807767
Epoch Year2019
RAAN314.3577
Inclination6.1024
Eccentricity0.0002446
Argument of Perigee200.3279
Mean Anonmoly13.8955
Mean Motion1.00273569
Decay Rate5.5E-07
L11 42749U 17032A 19228.53807767 .00000055 00000-0 00000-0 0 9994
L22 42749 6.1024 314.3577 0002446 200.3279 13.8955 1.00273569 8079

Live tracking and technical data element details for ECHOSTAR 21 (NORAD 42749). ECHOSTAR 21 can be tracked NOW for your location showing map with azimuth and elevation plus other details from your city location.

Track the satellite on the map from your city or location and see movement details for azimuth, elevation, latitude, longitude, range, height, and movement on the map or in text.







IsCatalogInMostPopularTable: catalog: 42749, numindb: 288
Update: records affected: 1



GetName: 42749 ECHOSTAR 21

Hit Count: updated at: Wed, 21 Aug 2019 11:16:53 GMT